Location: Снежногорск
(68.0000°N, 88.0000°E)
Time: 20:43:04
(UTC+07:00)

N. Korean satellite - Visible Passes

Search period start: 29 September 2022 00:00
Search period end: 09 October 2022 00:00
Orbit: 427 x 468 km, 97.3° (Epoch: 28 September)

Date Brightness Start Highest point End Pass type
(mag) Time Alt. Az. Time Alt. Az. Time Alt. Az.
29 Sep 9.8 05:12:04 10° NE 05:13:38 13° E 05:15:12 10° ESE visible
30 Sep 8.7 06:08:14 10° NNE 06:11:12 29° E 06:14:08 10° SSE visible
01 Oct 9.5 05:32:49 10° NE 05:35:07 17° E 05:37:23 10° SE visible
02 Oct 10.3 04:58:31 10° ENE 04:58:52 10° ENE 04:59:13 10° E visible
03 Oct 9.1 05:53:40 10° NE 05:56:24 23° E 05:59:07 10° SSE visible
04 Oct 9.7 05:18:21 10° NE 05:20:10 14° E 05:21:58 10° ESE visible
05 Oct 8.5 06:14:29 10° NNE 06:17:30 32° E 06:20:30 10° SSE visible
06 Oct 9.5 05:38:51 10° NE 05:41:16 19° E 05:43:41 10° SE visible
07 Oct 10.0 05:03:52 10° ENE 05:04:53 11° E 05:05:53 10° E visible
07 Oct 7.7 06:35:13 10° NNE 06:38:25 45° ESE 06:41:36 10° S visible
08 Oct 8.9 05:59:23 10° NE 06:02:12 25° E 06:05:00 10° SSE visible
